Location: Banksville Park
(38.5557°N, 75.1182°W)
Time: 18:54:07
(UTC+00:00)

CZ-4B R/B - Visible Passes

Search period start: 26 January 2021 00:00
Search period end: 05 February 2021 00:00
Orbit: 389 x 457 km, 97.6° (Epoch: 25 January)

Date Brightness Start Highest point End Pass type
(mag) Time Alt. Az. Time Alt. Az. Time Alt. Az.
26 Jan 2.4 10:17:55 10° S 10:20:05 36° S 10:20:05 36° S visible
26 Jan 1.7 23:09:29 10° N 23:12:45 66° WNW 23:15:55 10° SSW visible
27 Jan 4.2 09:35:35 10° SE 09:36:46 17° ESE 09:36:46 17° ESE visible
27 Jan 3.3 11:08:35 10° SW 11:09:53 14° WSW 11:09:53 14° WSW visible
27 Jan 4.4 23:59:54 10° NW 00:01:36 14° WNW 00:03:17 10° W visible
28 Jan 2.1 10:24:06 10° S 10:26:34 42° SSW 10:26:34 42° SSW visible
28 Jan 2.1 23:15:39 10° N 23:18:51 53° WNW 23:21:56 10° SSW visible
29 Jan 3.8 09:41:31 10° SE 09:43:14 23° ESE 09:43:14 23° ESE visible
29 Jan 3.4 11:15:11 10° WSW 11:16:20 13° WSW 11:16:20 13° WSW visible
30 Jan 4.6 00:06:31 10° NW 00:07:39 11° WNW 00:08:45 10° W visible
30 Jan 1.9 10:30:16 10° S 10:33:01 43° SW 10:33:01 43° SW visible
30 Jan 2.5 23:21:49 10° N 23:24:54 43° WNW 23:27:54 10° SSW visible
31 Jan 3.3 09:47:26 10° SE 09:49:41 30° ESE 09:49:41 30° ESE visible
31 Jan 3.5 11:22:02 10° WSW 11:22:48 11° W 11:22:48 11° W visible
01 Feb 1.9 10:36:24 10° S 10:39:28 40° WSW 10:39:28 40° WSW visible
01 Feb 2.9 23:27:56 10° N 23:30:54 35° WNW 23:33:47 10° SW visible
02 Feb 2.7 09:53:22 10° SSE 09:56:08 40° E 09:56:08 40° E visible
03 Feb 4.9 09:12:24 10° E 09:12:48 11° E 09:12:48 11° E visible
03 Feb 2.0 10:42:32 10° SSW 10:45:41 34° W 10:45:54 33° W visible
03 Feb 3.3 23:34:03 10° N 23:36:51 29° WNW 23:39:35 10° SW visible
04 Feb 2.2 09:59:16 10° SSE 10:02:34 52° ENE 10:02:34 52° ENE visible
04 Feb 1.3 22:50:44 10° NNE 22:53:50 53° E 22:56:52 10° S visible
